Regional Weather Roundup
Issued by NWS

Home | Current Version | Previous Version | Graphics & Text | Print | Product List | Glossary On
Versions: 1 2 3 4 5 6 7 8 9 10 11 12 13 14 15 16 17 18 19 20 21 22 23 24 25 26 27 28 29 30 31 32 33 34 35 36 37 38 39 40 41 42 43 44 45 46 47 48 49 50
000
ASUS43 KLOT 242302
RWRIL

ILLINOIS REGIONAL WEATHER ROUNDUP
NATIONAL WEATHER SERVICE CHICAGO/ROMEOVILLE IL
600 PM CDT FRI APR 24 2015

NOTE: "FAIR" INDICATES FEW OR NO CLOUDS BELOW 12,000 FEET WITH NO
SIGNIFICANT WEATHER AND/OR OBSTRUCTIONS TO VISIBILITY.

* THESE STATIONS ARE NOT UNDER NWS QUALITY CONTROL. THEY ALSO MAY NOT
  REPORT WEATHER SUCH AS PRECIPITATION OR FOG.

ILZ001-002-007-009-015-016-024-250000-
NORTHWEST ILLINOIS

CITY           SKY/WX    TMP DP  RH WIND       PRES   REMARKS
MOLINE         LGT RAIN  50  42  74 E12       29.81F
STERLING*      CLOUDY    48  43  81 NE7       29.91S
$$

ILZ003-004-008-010-011-017-018-250000-
NORTH CENTRAL ILLINOIS

CITY           SKY/WX    TMP DP  RH WIND       PRES   REMARKS
ROCKFORD       LGT RAIN  46  37  71 NE12      29.96R
FREEPORT*      RAIN      44  38  81 E16       29.91F
$$

ILZ005-006-012>014-019>023-250000-
NORTHEAST ILLINOIS

CITY           SKY/WX    TMP DP  RH WIND       PRES   REMARKS
CHICAGO-OHARE  CLOUDY    49  26  41 NE12      29.93S
CHICAGO-MIDWAY CLOUDY    52  21  29 E14       29.93F
AURORA         CLOUDY    56  21  25 NE16      29.89F
LANSING*       CLOUDY    53  19  27 NE9       29.92F
WAUKEGAN       CLOUDY    41  34  76 N8        29.97S
DUPAGE AIRPORT CLOUDY    52  23  32 E14       29.91S
WHEELING       CLOUDY    46  27  47 NE7       29.95S
NORTHERLY ISL    N/A     46  30  54 NE14        N/A
$$

LMZ740>746-250000-
SOUTHERN LAKE MICHIGAN

STATION/POSITION SKY/WX   TEMP    WIND        PRES    VSBY  WAVE
                          AIR SEA DIR/SP/G                  HT/PER
                          (F)     (DEG/KT/KT) (MB)    (MI)  (FT/S)
HARRISON CRIB              43      50/ 17/ 20   N/A
BURNHAM HARBOR             46      50/ 13/ 15   N/A
CALUMET HARBOR             47      40/  9/ 12   N/A
BURNS HARBOR               49      60/ 16/ 20 1013.9F
MICHIGAN CITY              47      40/ 17/ 19   N/A
MICHIGAN CITY 6N           45 44   80/ 12/ 16   N/A           1/ 2
$$

ILZ025>027-034>036-040-047-049-050-058-095>099-250000-
WEST-CENTRAL ILLINOIS

CITY           SKY/WX    TMP DP  RH WIND       PRES   REMARKS
QUINCY         CLOUDY    64  38  38 S13       29.74F
$$

ILZ028>032-037-038-041>044-048-051>054-059>061-250000-
CENTRAL ILLINOIS

CITY           SKY/WX    TMP DP  RH WIND       PRES   REMARKS
DECATUR        CLOUDY    59  32  36 S14       29.87F
PEORIA         CLOUDY    62  30  29 S14G23    29.82F
SPRINGFIELD    CLOUDY    60  33  36 SE17      29.83F
TAYLORVILLE    NOT AVBL
$$

ILZ033-039-045-046-055>057-062-063-250000-
EAST-CENTRAL ILLINOIS

CITY           SKY/WX    TMP DP  RH WIND       PRES   REMARKS
CHAMPAIGN      CLOUDY    61  28  28 SE15      29.89F
MATTOON        CLOUDY    58  31  35 S12       29.88F
$$

ILZ079-100>102-250000-
SOUTHWEST ILLINOIS

CITY           SKY/WX    TMP DP  RH WIND       PRES   REMARKS
BELLEVILLE     CLOUDY    60  40  47 S15G23    29.84S
CAHOKIA*       CLOUDY    60  41  49 S14G28    29.83F
SPARTA*        CLOUDY    57  40  52 S13G18    29.88F
$$

ILZ064>066-069>071-074>076-080>082-084>086-088>090-092>094-250000-
SOUTH-CENTRAL ILLINOIS

CITY           SKY/WX    TMP DP  RH WIND       PRES   REMARKS
CARBONDALE     CLOUDY    57  42  57 S14       29.91R
MARION         CLOUDY    61  37  41 S15       29.93S
MT. VERNON     CLOUDY    61  30  31 S9G18     29.90F
SALEM*         CLOUDY    64  30  28 S13       29.88F
$$

ILZ067-068-072-073-078-083-087-091-250000-
SOUTHEAST ILLINOIS

CITY           SKY/WX    TMP DP  RH WIND       PRES   REMARKS
LAWRENCEVILLE  CLOUDY    62  31  31 S13       29.92F
HARRISBURG*    CLOUDY    59  38  45 SE8       29.92F
ROBINSON*      CLOUDY    61  31  32 SE6       29.92F
$$

ABBREVIATIONS USED IN REMARKS
   TC - TEMPERATURE IN CELSIUS
  WCI - WIND CHILL INDEX
   HX - HEAT INDEX
  VSB - VISIBILITY
$$



USA.gov is the U.S. government's official web portal to all federal, state and local government web resources and services.